Change the Weather History Date:

Wednesday, November 21, 2012

  Actual Average Record
Temperature  
Mean Temperature 47 °F 39 °F  
Max Temperature 54 °F 46 °F 67 °F (1974)
Min Temperature 39 °F 33 °F 4 °F (1900)
Degree Days  
Heating Degree Days 18 26  
Month to date heating degree days 381 469  
Since 1 July heating degree days 767 994  
Cooling Degree Days 0 0  
Month to date cooling degree days 0 0  
Year to date cooling degree days 1034 807  
Moisture  
Dew Point 36 °F    
Average Humidity 61    
Maximum Humidity 86    
Minimum Humidity 35    
Precipitation  
Precipitation 0.18 in 0.04 in 0.48 in (1924)
Month to date precipitation 0.70 0.85  
Year to date precipitation 14.11 11.01  
Snow  
Snow 0.00 in 0.10 in 5.20 in (1921)
Month to date snowfall T 1.0  
Since 1 July snowfall T 1.0  
Since 1 September snowfall T 1.0  
Snow Depth 0.00 in    
Sea Level Pressure  
Sea Level Pressure 29.88 in    
Wind  
Wind Speed 9 mph (SW)    
Max Wind Speed 25 mph    
Max Gust Speed 35 mph    
Visibility 9 miles    
Events Rain    
T = Trace of Precipitation, MM = Missing Value Source: NWS Daily Summary

Daily Weather History Graph

Daily Weather History Graph

Search for Another Location

Airport or City:

Trip Planner

Search our weather history database for the weather conditions in past years. The results will help you decide how hot, cold, wet, or windy it might be!

Date:

Astronomy

Nov. 21, 2012 Rise Set
Actual Time 6:58 AM PST 4:09 PM PST
Civil Twilight 6:25 AM PST 4:42 PM PST
Nautical Twilight 5:48 AM PST 5:19 PM PST
Astronomical Twilight 5:12 AM PST 5:55 PM PST
Moon 12:47 PM PST (11/21) 12:01 AM PST (11/21)
Length of Visible Light 10h 16m
Length of Day
9h 10m
Waxing Gibbous, 63% of the Moon is Illuminated
Nov 21
Waxing Gibbous
Nov 28
Full
Dec 6
Last Quarter
Dec 13
New
Dec 19
First Quarter

Hourly Weather History & Observations

Time (PST) Temp. Windchill Dew Point Humidity Pressure Visibility Wind Dir Wind Speed Gust Speed Precip Events Conditions
12:56 AM 50.0 °F - 43.0 °F 77% 29.69 in 10.0 mi Calm Calm - N/A   Mostly Cloudy
1:56 AM 48.9 °F - 44.1 °F 83% 29.68 in 10.0 mi Calm Calm - N/A   Overcast
2:04 AM 48.2 °F - 44.6 °F 87% 29.66 in 10.0 mi South 3.5 mph - N/A   Overcast
2:56 AM 48.0 °F - 44.1 °F 86% 29.67 in 6.0 mi Variable 4.6 mph - 0.02 in Rain Light Rain
3:33 AM 46.4 °F - 44.6 °F 93% 29.69 in 4.0 mi Calm Calm - 0.06 in Rain Rain
3:51 AM 48.2 °F - 44.6 °F 87% 29.63 in 8.0 mi SSE 13.8 mph - 0.13 in Rain Light Rain
3:56 AM 48.2 °F - 44.6 °F 87% 29.62 in 10.0 mi SE 13.8 mph - N/A   Overcast
4:56 AM 46.9 °F - 43.0 °F 86% 29.66 in 10.0 mi NNE 4.6 mph - N/A   Clear
5:56 AM 48.9 °F - 39.9 °F 71% 29.66 in 10.0 mi South 6.9 mph - N/A   Mostly Cloudy
6:44 AM 46.4 °F 40.4 °F 42.8 °F 87% 29.73 in 4.0 mi NW 13.8 mph 34.5 mph 0.03 in Rain Heavy Rain
6:56 AM 46.0 °F 41.9 °F 42.1 °F 86% 29.74 in 10.0 mi WNW 8.1 mph - 0.03 in   Overcast
7:56 AM 46.9 °F - 39.0 °F 74% 29.77 in 10.0 mi WSW 5.8 mph - N/A   Scattered Clouds
8:56 AM 48.9 °F - 39.9 °F 71% 29.80 in 10.0 mi SSW 6.9 mph - N/A   Mostly Cloudy
9:56 AM 51.1 °F - 39.0 °F 63% 29.84 in 10.0 mi South 3.5 mph - N/A   Partly Cloudy
10:56 AM 52.0 °F - 30.9 °F 45% 29.88 in 10.0 mi West 15.0 mph 24.2 mph N/A   Partly Cloudy
11:56 AM 53.6 °F - 26.6 °F 35% 29.89 in 10.0 mi WSW 15.0 mph - N/A   Partly Cloudy
12:56 PM 53.1 °F - 26.1 °F 35% 29.92 in 10.0 mi WSW 20.7 mph 31.1 mph N/A   Clear
1:56 PM 53.1 °F - 26.1 °F 35% 29.95 in 10.0 mi West 15.0 mph - N/A   Partly Cloudy
2:56 PM 53.1 °F - 26.1 °F 35% 29.97 in 10.0 mi West 12.7 mph - N/A   Partly Cloudy
3:56 PM 50.0 °F - 28.0 °F 43% 30.00 in 10.0 mi WSW 11.5 mph - N/A   Partly Cloudy
4:56 PM 50.0 °F - 27.0 °F 41% 30.02 in 10.0 mi WSW 13.8 mph - N/A   Mostly Cloudy
5:56 PM 46.0 °F 41.4 °F 30.0 °F 54% 30.05 in 10.0 mi SSW 9.2 mph - N/A   Partly Cloudy
6:56 PM 45.0 °F 37.6 °F 34.0 °F 65% 30.09 in 10.0 mi South 17.3 mph 27.6 mph N/A   Partly Cloudy
7:56 PM 42.1 °F 40.2 °F 33.1 °F 70% 30.12 in 10.0 mi South 3.5 mph - N/A   Mostly Cloudy
8:56 PM 43.0 °F 38.8 °F 30.9 °F 62% 30.14 in 10.0 mi South 6.9 mph - N/A   Clear
9:56 PM 41.0 °F 39.0 °F 28.0 °F 60% 30.19 in 10.0 mi NW 3.5 mph - N/A   Clear
10:56 PM 39.0 °F 34.8 °F 30.0 °F 70% 30.22 in 10.0 mi SSE 5.8 mph - N/A   Scattered Clouds
11:56 PM 41.0 °F 35.8 °F 28.0 °F 60% 30.26 in 10.0 mi SSW 8.1 mph - N/A   Partly Cloudy